Location: Caltech
(34.1382°N, 118.1253°W)
Time: 23:07:07
(UTC-07:00)

Iridium 21 - Visible Passes

Search period start: 24 August 2016 00:00
Search period end: 03 September 2016 00:00
Orbit: 776 x 779 km, 86.4° (Epoch: 24 August)

Date Brightness Start Highest point End Pass type
(mag) Time Alt. Az. Time Alt. Az. Time Alt. Az.
24 Aug 8.1 02:40:07 13° NNW 02:40:07 13° NNW 02:40:38 10° NNW visible
25 Aug 8.3 02:06:49 13° N 02:06:49 13° N 02:07:23 10° N visible
26 Aug 8.5 01:33:32 11° NNE 01:33:32 11° NNE 01:33:45 10° NNE visible
